Temperature
31 31 32 33 34 33 33 33 33 33 34 34 33 32 32 32 31 30 30 29 28 26 26 25 24 23 22 21 21 21 21 20 20 20 19 19 19 19 19 19 19 19 18 18
32 31 33 34 34 34 33 33 33 33 34 34 33 32 33 32 32 31 30 29 28 27 26 25 24 23 22 21 21 21 21 20 20 20 19 19 19 19 19 19 19 19 18 18
31 33 34 33 33 33 33 33 33 33 34 34 33 32 31 31 31 31 31 29 29 27 26 24 24 23 22 21 21 21 21 20 20 20 19 19 19 19 19 19 19 19 18 18
32 33 33 33 33 33 32 34 34 33 33 32 33 30 29 30 30 31 31 30 29 28 26 25 24 23 22 21 21 21 21 20 20 20 19 19 19 19 19 19 19 19 18 18
32 33 32 32 33 33 33 34 34 33 33 32 33 31 29 29 29 30 31 31 29 28 27 25 24 23 23 22 21 21 21 20 20 20 19 19 19 19 19 19 19 18 18 18
32 34 33 33 34 34 34 33 33 33 32 31 32 31 29 29 30 30 31 30 29 28 27 26 24 23 23 22 21 20 20 20 20 20 19 19 19 19 19 18 18 18 18 18
31 32 33 33 33 33 33 31 30 30 30 30 31 31 30 31 32 32 31 30 29 28 27 25 24 23 23 22 21 21 20 20 20 20 19 19 19 19 19 19 18 18 18 18
30 30 32 33 32 32 32 32 30 29 30 30 30 30 31 33 32 32 31 30 29 27 26 25 24 23 22 22 21 21 20 20 20 19 19 19 19 19 18 18 18 18 18 18
31 31 33 33 33 33 32 32 33 32 31 30 30 30 30 32 32 32 31 30 29 28 26 25 24 23 22 22 21 20 20 20 19 19 19 19 19 18 18 18 18 18 18 18
32 31 33 33 33 33 33 33 32 31 30 29 30 30 30 30 32 32 31 30 29 27 26 25 24 23 22 21 21 20 20 20 19 19 19 18 18 18 18 18 18 18 18 18
32 31 32 32 31 32 32 32 32 31 31 30 29 28 31 31 32 32 31 30 28 27 26 25 24 23 22 21 21 20 20 19 19 19 18 18 18 18 18 18 18 18 18 18
32 31 31 32 33 33 33 32 32 30 30 31 30 29 32 32 32 32 30 29 28 27 26 24 24 22 22 21 20 20 19 19 18 18 18 18 18 18 18 17 17 17 17 17
31 30 29 30 31 32 32 32 32 32 31 30 30 30 32 32 32 31 29 28 26 26 25 24 23 22 21 21 20 20 19 19 18 18 18 18 18 17 17 17 17 17 17 17
30 29 29 29 30 31 31 32 32 32 31 31 30 30 30 31 31 30 29 27 26 26 24 24 22 21 21 20 20 19 19 18 18 18 18 18 17 17 17 17 17 17 16 16
30 29 29 30 31 32 32 31 32 32 32 31 31 31 30 31 31 29 28 27 26 25 24 23 22 21 20 19 19 19 18 18 18 18 18 17 17 17 17 17 16 16 16 16
29 28 29 29 31 31 31 32 32 32 32 31 31 31 31 31 30 28 27 27 26 25 24 22 21 20 20 19 19 18 18 18 18 17 17 17 17 17 16 16 16 16 16 15
28 27 27 28 30 30 30 31 32 32 32 32 31 31 31 30 29 28 27 26 25 24 23 22 21 20 19 19 19 18 18 18 17 17 17 16 17 16 16 16 16 15 15 15
27 26 26 27 28 27 30 32 32 32 32 32 31 31 31 29 28 27 26 25 24 24 22 21 20 20 19 19 18 18 17 17 17 17 16 16 16 16 16 15 15 15 14 14
27 26 26 27 27 28 30 31 32 31 30 31 31 30 30 29 27 26 25 25 24 23 22 21 20 20 19 18 18 18 17 17 16 16 16 16 15 15 15 15 15 14 14 14
27 26 26 26 26 26 29 31 31 31 29 30 29 29 29 28 27 26 24 24 23 22 21 20 20 19 19 18 18 17 17 17 16 16 16 15 15 15 15 15 14 14 14 13
26 25 25 25 26 27 29 30 30 28 27 28 28 28 27 27 26 24 23 22 21 21 20 20 19 19 18 18 17 17 16 16 16 15 15 15 15 15 15 14 14 13 13 13
26 26 25 25 25 26 27 29 27 26 26 26 26 26 26 25 24 23 22 21 20 20 19 19 18 18 17 17 17 17 16 16 16 15 15 15 14 14 14 14 13 13 12 12
26 26 26 26 25 24 25 24 24 25 25 25 25 25 24 24 23 22 20 20 19 19 18 18 17 17 17 17 16 16 16 16 15 15 15 14 14 14 13 13 13 12 12 12
26 26 26 24 24 24 24 23 23 23 23 24 24 24 23 23 22 20 19 19 18 18 17 17 16 16 16 16 16 16 16 15 15 15 14 14 14 13 13 13 12 12 12 12
24 25 24 23 23 23 23 22 22 22 23 23 23 22 22 21 20 19 18 18 17 17 16 16 16 16 15 15 15 15 15 15 14 14 13 13 13 13 13 12 12 12 12 12
23 23 23 22 22 22 21 21 21 21 21 21 21 21 21 20 19 18 17 17 16 16 16 15 15 15 15 15 15 15 14 14 14 13 13 12 12 12 12 12 12 11 11 11
Wind_Speed
11 11 13 13 12 10 10 7 3 3 3 3 4 6 10 9 9 12 13 14 15 15 14 13 13 13 12 10 10 9 8 7 6 5 5 5 4 4 4 4 6 7 7 7
11 15 15 11 10 10 11 10 5 4 5 4 5 4 7 8 8 10 12 13 13 15 14 13 12 13 13 11 10 9 9 9 8 6 4 3 3 3 4 3 4 7 7 7
16 10 10 11 10 10 11 11 7 5 4 6 8 6 3 5 5 8 11 14 15 16 16 15 13 12 12 11 10 9 8 8 8 7 5 3 3 2 2 3 4 5 7 8
15 14 9 11 12 11 11 10 8 7 8 8 8 5 5 6 8 9 11 13 14 14 15 15 14 12 11 11 10 8 8 7 6 6 6 6 5 4 4 3 3 4 6 7
13 13 11 12 13 11 11 6 8 11 11 11 10 5 5 7 8 9 10 12 13 13 13 14 14 12 10 10 10 8 7 7 6 5 5 4 4 4 3 3 3 3 4 5
17 12 12 12 13 11 10 8 9 11 11 12 11 7 5 8 10 8 10 11 11 12 12 12 12 11 9 9 8 8 8 7 6 6 5 5 4 3 3 3 2 3 3 4
17 15 12 11 13 12 11 10 7 8 9 9 8 7 5 8 8 7 8 10 11 11 12 12 12 11 9 9 8 8 8 6 6 6 5 4 4 4 3 3 3 3 3 3
17 16 16 14 15 12 14 15 11 9 6 4 4 4 4 8 9 8 8 11 12 12 10 11 12 11 9 9 8 7 7 6 6 5 5 4 3 3 3 3 3 2 2 2
13 16 17 16 16 16 15 15 17 15 14 8 5 4 5 7 10 9 10 11 11 12 12 11 11 11 9 8 8 7 7 6 5 4 4 3 2 2 2 1 1 1 2 2
14 11 15 17 14 17 16 14 11 11 9 9 5 6 5 10 10 11 10 10 11 12 11 12 12 11 10 8 7 7 7 6 4 4 3 3 2 2 1 0 0 1 1 2
19 13 12 16 16 16 16 15 11 9 9 10 5 1 1 8 8 10 11 10 11 11 11 11 11 11 10 9 9 8 7 6 4 3 3 3 3 2 2 2 2 2 2 2
16 12 12 14 16 15 16 16 14 9 8 10 8 2 3 4 7 10 11 11 10 10 11 12 12 11 10 9 9 8 7 6 5 4 5 4 4 4 3 3 3 3 3 3
13 10 12 13 14 16 16 16 16 15 11 10 10 3 6 6 6 11 12 12 11 10 12 12 11 10 9 9 8 8 7 7 6 6 5 5 5 5 4 4 4 4 4 4
8 11 14 14 12 15 17 17 16 15 11 11 9 6 7 7 9 11 12 12 12 12 12 12 11 10 9 9 8 8 8 8 7 6 6 6 5 5 5 5 5 5 5 5
8 13 15 16 14 14 15 17 18 17 14 11 8 6 8 7 9 11 12 12 12 12 12 12 11 10 10 9 8 8 8 7 7 7 7 7 6 6 5 5 5 5 6 6
9 9 13 16 16 15 14 16 16 17 14 13 10 5 3 8 10 11 11 11 12 11 11 12 12 11 10 10 9 8 8 7 7 7 7 7 6 6 6 6 6 6 6 6
11 8 10 13 15 15 16 14 14 13 13 12 11 6 6 7 10 11 11 10 10 12 12 12 11 11 10 9 9 8 8 8 7 7 7 7 6 6 6 6 7 7 6 7
8 9 8 12 12 16 13 12 12 12 8 6 4 3 5 9 10 10 10 10 9 10 12 12 11 11 10 10 9 8 9 8 8 7 7 7 6 7 7 7 7 7 6 6
7 7 9 11 14 14 11 10 11 10 5 2 2 4 6 8 11 9 9 9 9 10 10 11 11 11 11 11 10 9 8 8 8 8 7 7 6 6 6 7 6 6 6 6
10 7 9 10 11 12 8 7 7 8 6 2 2 3 5 7 6 7 9 11 11 11 10 10 11 11 10 10 10 9 9 8 8 8 7 7 7 7 6 6 6 5 5 6
15 12 13 14 12 8 4 3 6 9 4 4 4 4 5 4 4 9 12 11 11 11 11 11 11 10 9 9 9 9 9 8 8 8 8 8 7 7 6 5 5 5 6 7
15 14 14 13 14 8 4 2 2 4 7 6 6 6 7 8 10 12 12 12 11 11 11 11 10 10 9 9 9 10 9 9 9 8 9 8 7 7 7 6 6 5 5 6
10 7 7 5 3 5 8 8 8 6 7 6 6 6 7 8 10 11 11 11 11 10 10 10 11 11 9 9 9 10 10 9 9 9 9 8 8 7 6 6 5 4 3 4
7 3 2 2 5 7 8 9 7 6 6 5 6 6 5 7 9 11 11 10 10 9 9 10 11 11 9 9 9 9 10 9 10 9 9 8 8 8 7 6 5 5 4 4
2 2 4 3 3 5 6 7 5 5 5 5 6 5 5 6 9 10 10 9 9 8 8 9 10 10 10 10 10 10 9 10 10 9 8 8 8 9 9 9 8 7 6 5
3 4 2 1 2 2 4 4 4 4 5 5 5 5 4 5 8 9 9 9 9 9 8 9 10 10 11 10 10 9 8 9 9 8 8 7 8 8 8 9 9 13 11 12
Wind_Direction
218 231 238 237 239 260 285 288 242 172 184 237 211 175 168 181 183 173 173 173 172 171 171 164 164 165 163 161 166 171 178 170 179 188 191 198 206 209 211 207 192 193 205 200
224 230 241 250 254 262 273 275 255 210 205 251 251 218 174 175 193 176 172 170 174 166 164 162 168 170 168 169 173 176 183 179 188 195 204 201 203 215 214 215 185 200 203 204
231 233 225 243 246 246 255 263 263 261 238 240 250 238 182 177 198 194 180 173 175 171 168 168 174 173 171 173 180 185 183 179 189 189 188 204 189 224 227 210 197 203 205 211
237 240 226 235 241 239 249 256 273 278 265 263 253 242 190 194 206 207 189 173 169 173 169 170 175 177 178 176 178 177 173 175 182 188 195 195 197 209 221 218 198 198 210 217
232 227 228 231 237 236 251 277 269 269 268 271 267 249 192 185 208 211 186 167 164 168 171 169 173 172 175 175 174 171 169 178 182 192 202 203 213 212 216 208 182 198 210 222
245 231 223 233 236 237 248 258 260 259 264 261 262 258 176 183 189 185 166 156 156 160 161 160 163 161 169 168 164 162 164 174 178 190 201 204 215 217 222 224 194 206 214 215
234 234 219 226 234 223 228 238 239 237 237 249 264 259 158 169 163 153 160 153 148 147 148 150 153 157 161 160 160 157 161 166 175 187 198 205 215 218 221 238 228 232 234 221
216 222 215 214 228 223 218 232 242 254 253 256 253 259 143 127 123 130 146 139 138 143 146 151 153 152 155 158 153 152 156 163 173 181 188 196 205 219 227 229 240 244 265 254
219 220 206 208 218 234 223 230 248 263 277 273 214 185 154 150 143 142 141 141 144 146 151 155 150 148 151 154 149 150 147 149 158 163 162 166 186 221 244 220 230 273 289 292
250 242 212 197 208 230 241 234 245 256 272 278 241 213 179 165 160 151 146 145 142 147 153 147 145 145 144 151 142 136 134 133 133 135 148 161 165 175 160 70 54 345 5 357
242 250 225 197 203 220 225 236 247 263 266 275 272 9 114 169 161 150 147 146 143 145 144 142 137 138 140 142 136 131 130 128 127 129 123 108 110 106 92 74 55 47 39 31
226 241 239 216 206 222 229 230 235 244 259 276 280 184 148 160 149 139 134 127 126 131 133 134 131 132 135 132 130 129 129 130 127 120 115 105 101 96 88 78 64 59 55 46
215 238 236 226 208 209 230 231 233 234 240 252 265 150 138 144 131 127 127 127 132 136 130 129 128 128 128 127 126 126 128 127 126 121 114 104 96 91 85 79 72 67 65 55
222 230 239 232 218 208 216 229 235 237 239 241 244 174 166 161 145 136 135 138 142 137 133 134 131 129 126 123 122 124 124 122 123 116 108 101 92 89 86 81 71 66 64 60
226 227 242 258 259 241 215 220 227 235 246 251 250 220 179 168 146 141 141 143 142 141 142 139 137 133 131 128 128 125 118 114 114 111 106 100 95 89 86 82 75 68 64 62
221 245 241 248 253 249 236 223 223 228 236 245 254 263 132 130 130 133 140 147 146 146 145 141 139 138 136 135 134 126 118 115 112 108 104 100 95 89 86 88 85 78 72 66
205 227 242 243 243 247 239 230 229 230 229 235 242 222 158 134 138 140 143 145 156 152 148 144 143 142 139 137 133 131 126 124 116 109 103 98 94 87 78 79 78 73 69 68
212 217 238 246 245 242 242 231 231 236 239 236 223 169 132 127 125 128 138 146 149 147 145 143 141 138 138 136 132 129 129 127 120 113 105 100 96 90 81 78 76 72 72 70
218 219 234 240 238 236 237 222 225 221 217 232 178 135 125 129 126 124 132 138 136 132 135 139 143 141 138 139 137 133 129 126 119 113 108 103 100 94 89 86 82 79 80 79
208 212 233 241 243 239 237 230 232 221 199 157 124 123 131 140 158 141 130 128 126 127 129 133 134 131 132 134 136 135 128 121 117 112 105 100 97 96 92 87 85 86 85 86
200 204 223 241 246 244 311 234 216 219 172 95 91 98 105 98 83 117 122 121 122 124 126 126 126 126 125 128 130 125 120 115 113 110 105 100 99 99 93 88 85 88 93 93
201 205 212 230 242 238 2 144 134 80 77 79 82 87 94 97 105 117 120 119 121 126 127 125 122 121 122 124 126 122 118 116 114 111 105 98 93 93 94 89 89 89 94 99
208 214 213 218 211 80 61 80 82 80 78 73 79 89 97 113 120 123 124 126 128 129 129 130 128 124 124 124 125 126 123 122 119 115 109 103 95 87 89 94 97 100 101 103
194 192 201 127 119 103 91 86 75 72 76 69 80 94 108 117 125 130 130 131 132 132 133 133 133 131 126 123 121 121 126 128 125 120 115 112 107 97 79 70 70 67 55 72
317 236 205 172 136 102 95 86 80 76 77 68 75 89 104 119 131 137 138 137 134 133 133 134 134 131 127 122 120 124 128 132 129 127 125 120 110 103 85 71 56 66 54 49
315 323 280 205 64 77 93 81 84 75 74 67 73 83 96 120 132 140 142 141 140 139 137 135 132 130 130 128 126 129 132 135 135 136 137 134 128 122 114 105 86 58 62 61
Height
1494 1495 1493 1487 1482 1482 1481 1484 1487 1484 1479 1483 1486 1489 1491 1494 1498 1502 1506 1512 1517 1521 1526 1529 1532 1535 1537 1539 1540 1542 1544 1546 1547 1549 1551 1552 1554 1555 1557 1558 1559 1560 1561 1562
1492 1493 1485 1481 1480 1482 1484 1486 1486 1483 1478 1482 1486 1488 1487 1492 1495 1498 1503 1509 1513 1518 1523 1527 1530 1533 1535 1537 1538 1540 1542 1544 1545 1547 1549 1551 1552 1554 1555 1556 1556 1557 1559 1560
1491 1484 1480 1482 1483 1486 1487 1486 1484 1485 1479 1479 1485 1493 1492 1490 1494 1497 1500 1504 1509 1514 1519 1524 1528 1531 1533 1535 1537 1539 1540 1542 1544 1545 1547 1549 1550 1552 1553 1553 1554 1555 1556 1558
1484 1479 1480 1483 1485 1485 1490 1479 1479 1482 1488 1490 1486 1508 1500 1492 1495 1495 1497 1501 1506 1511 1516 1521 1525 1529 1531 1533 1535 1537 1539 1540 1542 1543 1545 1546 1547 1549 1550 1551 1552 1553 1554 1556
1482 1478 1481 1485 1483 1481 1483 1477 1480 1482 1487 1491 1486 1500 1503 1495 1498 1494 1493 1497 1502 1508 1513 1518 1522 1526 1530 1532 1534 1535 1537 1538 1540 1541 1543 1544 1546 1547 1548 1549 1550 1551 1552 1553
1477 1474 1477 1479 1478 1478 1479 1481 1483 1484 1488 1504 1492 1497 1507 1495 1493 1491 1490 1495 1500 1506 1511 1516 1521 1525 1528 1531 1532 1534 1534 1536 1538 1539 1541 1542 1544 1545 1546 1547 1548 1549 1550 1551
1482 1475 1474 1477 1480 1479 1482 1494 1507 1510 1510 1508 1488 1492 1494 1482 1481 1485 1489 1494 1499 1505 1510 1515 1520 1523 1526 1529 1531 1532 1533 1534 1536 1537 1539 1540 1542 1543 1544 1545 1546 1547 1548 1548
1488 1487 1474 1475 1479 1481 1484 1489 1507 1517 1514 1508 1496 1498 1487 1476 1479 1484 1489 1493 1499 1505 1510 1514 1518 1522 1525 1528 1530 1531 1532 1533 1534 1535 1536 1538 1540 1541 1542 1543 1544 1545 1545 1546
1477 1480 1467 1469 1473 1475 1482 1485 1480 1490 1494 1503 1500 1494 1486 1477 1480 1484 1488 1493 1499 1504 1509 1513 1517 1520 1524 1527 1529 1530 1531 1532 1533 1534 1535 1537 1539 1540 1541 1541 1542 1543 1543 1544
1465 1475 1464 1465 1471 1472 1473 1476 1482 1493 1507 1513 1505 1498 1495 1485 1482 1483 1488 1493 1498 1504 1508 1513 1516 1519 1523 1526 1528 1530 1531 1532 1533 1534 1535 1537 1538 1539 1539 1540 1540 1541 1541 1542
1464 1474 1469 1466 1474 1477 1478 1480 1482 1485 1489 1504 1512 1509 1481 1480 1479 1481 1487 1492 1498 1502 1508 1512 1516 1520 1523 1526 1528 1529 1530 1532 1533 1534 1535 1537 1537 1538 1538 1538 1539 1539 1539 1540
1463 1468 1474 1468 1463 1466 1470 1475 1480 1496 1497 1491 1499 1503 1477 1478 1478 1481 1487 1493 1498 1502 1507 1512 1516 1520 1523 1525 1527 1529 1530 1532 1533 1534 1535 1536 1537 1537 1538 1538 1538 1538 1538 1538
1463 1471 1485 1482 1474 1470 1471 1470 1472 1476 1483 1492 1499 1498 1476 1477 1479 1483 1489 1495 1500 1504 1508 1513 1517 1520 1523 1525 1527 1529 1530 1532 1533 1534 1535 1536 1537 1537 1538 1538 1538 1538 1538 1538
1462 1470 1478 1484 1477 1469 1473 1472 1469 1474 1485 1489 1489 1489 1482 1479 1481 1486 1491 1496 1501 1505 1510 1513 1517 1521 1523 1525 1527 1529 1531 1532 1534 1535 1535 1536 1537 1537 1538 1538 1538 1538 1538 1537
1463 1472 1471 1467 1462 1460 1465 1468 1469 1473 1474 1482 1480 1479 1479 1478 1481 1486 1492 1497 1501 1506 1510 1514 1518 1521 1524 1526 1528 1530 1532 1533 1534 1535 1536 1536 1537 1537 1538 1538 1538 1538 1538 1537
1466 1472 1472 1472 1464 1461 1463 1463 1465 1468 1470 1473 1475 1478 1474 1477 1482 1487 1493 1497 1502 1507 1511 1515 1518 1521 1524 1526 1529 1530 1532 1533 1534 1536 1537 1537 1537 1538 1538 1538 1538 1538 1538 1538
1467 1475 1479 1479 1467 1466 1473 1463 1463 1465 1464 1469 1477 1476 1474 1478 1482 1488 1493 1498 1503 1507 1510 1515 1518 1521 1524 1526 1528 1530 1532 1533 1535 1536 1537 1538 1538 1538 1539 1539 1539 1539 1538 1538
1468 1475 1477 1479 1478 1490 1468 1453 1456 1462 1464 1464 1468 1470 1474 1479 1484 1489 1494 1498 1502 1507 1510 1514 1518 1521 1524 1526 1528 1530 1532 1534 1535 1536 1537 1538 1539 1539 1539 1539 1539 1539 1539 1539
1466 1473 1478 1480 1483 1478 1462 1454 1456 1462 1469 1466 1469 1472 1477 1481 1486 1492 1496 1499 1503 1507 1510 1514 1518 1521 1524 1526 1528 1530 1532 1534 1535 1536 1538 1538 1539 1539 1540 1540 1540 1540 1540 1540
1466 1471 1479 1479 1486 1486 1467 1455 1455 1461 1474 1470 1472 1475 1478 1481 1487 1493 1497 1500 1504 1508 1511 1515 1518 1521 1524 1526 1528 1530 1532 1534 1536 1537 1538 1539 1539 1540 1540 1540 1540 1541 1541 1541
1470 1475 1480 1481 1482 1472 1461 1456 1458 1475 1479 1473 1475 1478 1481 1484 1488 1493 1497 1501 1505 1508 1512 1515 1518 1521 1523 1526 1528 1530 1532 1534 1536 1537 1538 1539 1540 1540 1541 1541 1541 1542 1542 1543
1466 1471 1476 1478 1483 1479 1463 1461 1469 1476 1475 1476 1478 1481 1484 1487 1491 1495 1499 1503 1506 1509 1513 1515 1518 1520 1523 1525 1527 1529 1531 1533 1535 1537 1538 1539 1540 1541 1541 1542 1542 1543 1544 1544
1458 1461 1462 1469 1474 1472 1469 1471 1475 1477 1478 1480 1481 1484 1487 1490 1493 1497 1501 1504 1508 1510 1513 1515 1518 1520 1523 1525 1527 1529 1531 1533 1535 1536 1538 1539 1540 1541 1542 1543 1544 1544 1545 1545
1456 1458 1462 1467 1471 1472 1474 1476 1478 1479 1481 1483 1484 1486 1488 1491 1494 1498 1502 1505 1508 1511 1513 1516 1518 1520 1522 1524 1526 1528 1530 1532 1535 1536 1538 1539 1541 1542 1543 1544 1544 1545 1546 1546
1461 1461 1463 1469 1472 1474 1477 1479 1481 1481 1483 1484 1485 1487 1490 1492 1495 1498 1501 1505 1507 1510 1513 1515 1518 1520 1522 1524 1526 1528 1530 1532 1534 1536 1538 1540 1541 1542 1543 1544 1545 1546 1546 1547
1467 1468 1469 1473 1475 1477 1480 1482 1482 1483 1484 1486 1487 1489 1491 1493 1496 1498 1501 1504 1507 1510 1513 1515 1517 1519 1521 1524 1526 1528 1530 1532 1534 1536 1538 1540 1541 1543 1544 1545 1546 1547 1548 1549